Weather History for KMBS - October, 2011

Change the Weather History Date:

Sunday, October 2, 2011

  Actual Average Record
Temperature  
Mean Temperature 50 °F 55 °F  
Max Temperature 64 °F 65 °F 82 °F (2005)
Min Temperature 37 °F 44 °F 30 °F (2003)
Degree Days  
Heating Degree Days 14    
Month to date heating degree days  
Since 1 July heating degree days  
Cooling Degree Days 0    
Month to date cooling degree days  
Year to date cooling degree days  
Moisture  
Dew Point 35 °F    
Average Humidity 64    
Maximum Humidity 89    
Minimum Humidity 28    
Precipitation  
Precipitation 0.00 in 0.10 in 0.49 in (2010)
Month to date precipitation 0.20  
Year to date precipitation 24.55  
Snow  
Snow 0.00 in - - ()
Month to date snowfall  
Since 1 July snowfall  
Since 1 September snowfall  
Snow Depth -    
Sea Level Pressure  
Sea Level Pressure 30.17 in    
Wind  
Wind Speed 10 mph (NNW)    
Max Wind Speed 17 mph    
Max Gust Speed 24 mph    
Visibility 10 miles    
Events      
T = Trace of Precipitation, MM = Missing Value Source: NWS Daily Summary

Daily Weather History Graph

Daily Weather History Graph

Search for Another Location

Airport or City:

Trip Planner

Search our weather history database for the weather conditions in past years. The results will help you decide how hot, cold, wet, or windy it might be!

Date:

Astronomy

Oct. 02, 2011 Rise Set
Actual Time 7:34 AM EDT 7:16 PM EDT
Civil Twilight 7:06 AM EDT 7:44 PM EDT
Nautical Twilight 6:32 AM EDT 8:17 PM EDT
Astronomical Twilight 5:59 AM EDT 8:51 PM EDT
Moon 1:50 PM EDT (10/2) 11:03 PM EDT (10/2)
Length of Visible Light 12h 38m
Length of Day
11h 41m
Waxing Crescent, 34% of the Moon is Illuminated
Oct 2
Waxing Crescent
Oct 3
First Quarter
Oct 11
Full
Oct 19
Last Quarter
Oct 26
New

Hourly Weather History & Observations

Time (EDT) Temp. Windchill Dew Point Humidity Pressure Visibility Wind Dir Wind Speed Gust Speed Precip Events Conditions
12:53 AM 39.0 °F 33.4 °F 33.1 °F 79% 30.24 in 10.0 mi NNW 8.1 mph - N/A   Clear
1:53 AM 39.0 °F 33.4 °F 33.1 °F 79% 30.23 in 10.0 mi NNW 8.1 mph - N/A   Clear
2:53 AM 37.9 °F 31.5 °F 34.0 °F 86% 30.23 in 10.0 mi NNW 9.2 mph - N/A   Clear
3:53 AM 39.0 °F 32.8 °F 34.0 °F 82% 30.22 in 10.0 mi NNW 9.2 mph - N/A   Clear
4:53 AM 37.9 °F 31.5 °F 34.0 °F 86% 30.21 in 10.0 mi NNW 9.2 mph - N/A   Clear
5:53 AM 37.4 °F 31.4 °F 33.8 °F 87% 30.20 in 10.0 mi NW 8.1 mph - N/A   Clear
6:53 AM 37.0 °F 29.3 °F 34.0 °F 89% 30.22 in 10.0 mi NW 11.5 mph - N/A   Clear
7:53 AM 37.0 °F 29.8 °F 34.0 °F 89% 30.23 in 10.0 mi NW 10.4 mph - N/A   Clear
8:53 AM 42.1 °F 35.2 °F 36.0 °F 79% 30.23 in 10.0 mi NNW 12.7 mph - N/A   Clear
9:53 AM 46.9 °F - 37.9 °F 71% 30.22 in 10.0 mi NNW 11.5 mph - N/A   Clear
10:53 AM 52.0 °F - 36.0 °F 54% 30.22 in 10.0 mi NNW 17.3 mph 24.2 mph N/A   Clear
12:53 PM 59.0 °F - 34.0 °F 39% 30.19 in 10.0 mi North 10.4 mph 18.4 mph N/A   Clear
1:53 PM 60.8 °F - 30.2 °F 31% 30.14 in 10.0 mi NNW 11.5 mph 19.6 mph N/A   Clear
2:53 PM 64.0 °F - 30.0 °F 28% 30.13 in 10.0 mi North 16.1 mph 21.9 mph N/A   Clear
3:53 PM 63.0 °F - 30.9 °F 30% 30.10 in 10.0 mi NW 13.8 mph - N/A   Clear
4:53 PM 64.0 °F - 32.0 °F 30% 30.09 in 10.0 mi NW 13.8 mph - N/A   Clear
5:53 PM 62.6 °F - 37.4 °F 39% 30.09 in 10.0 mi NW 11.5 mph - N/A   Clear
6:53 PM 57.9 °F - 39.9 °F 51% 30.11 in 10.0 mi NNW 8.1 mph - N/A   Clear
7:53 PM 54.0 °F - 39.9 °F 59% 30.11 in 10.0 mi NNW 9.2 mph - N/A   Clear
8:53 PM 50.0 °F - 39.2 °F 66% 30.12 in 10.0 mi North 4.6 mph - N/A   Clear
9:53 PM 50.0 °F - 37.0 °F 61% 30.14 in 10.0 mi North 4.6 mph - N/A   Clear
10:53 PM 48.9 °F - 39.0 °F 69% 30.14 in 10.0 mi NNW 3.5 mph - N/A   Mostly Cloudy
11:53 PM 46.9 °F - 41.0 °F 80% 30.12 in 10.0 mi NNW 6.9 mph - N/A   Clear